Location: ???????
(54.9996°N, 37.9529°E)
Time: 11:46:39
(UTC+00:00)

Cosmos 1633 Rocket - Pass Details

Date: 14 April 2024
Orbit: 604 x 619 km, 82.5° (Epoch: 18 May)

Event Time Altitude Azimuth Distance (km) Brightness Sun altitude
Rises 00:29:03 0° 351° (N) 2,876 7.0 -15.3°
Reaches altitude 10° 00:31:22 10° 358° (N) 1,968 6.2 -15.0°
Maximum altitude 00:35:33 45° 72° (ENE) 835 4.2 -14.6°
Drops below altitude 10° 00:39:43 10° 145° (SE) 1,958 5.6 -14.1°
Sets 00:42:00 0° 152° (SSE) 2,860 6.3 -13.9°
